CAPE
0 0 0 0 0 0 0 0 0 0 0 0 0 1 0 0 0 5 25 8 11 1 1 3 0 0 0 0 0 0 0 0 0 5 4 2 0 0 0 0 0 0 0
0 0 0 0 0 0 0 0 0 0 0 0 1 1 1 0 0 6 7 0 0 0 0 0 0 0 0 0 0 0 0 0 0 1 7 2 0 0 0 0 0 0 0
0 0 0 0 0 0 0 0 0 0 0 0 0 0 0 0 0 0 0 0 0 0 0 0 0 0 0 0 0 0 0 0 0 0 5 0 0 0 0 0 0 0 0
0 0 0 0 0 1 1 0 0 0 0 1 0 1 0 0 0 0 0 0 0 1 0 0 0 0 0 0 0 0 0 0 0 0 0 0 0 0 0 0 0 0 0
0 0 0 0 0 0 1 1 0 0 1 1 0 1 1 1 0 0 0 0 0 0 0 0 0 0 0 0 0 0 0 0 0 0 0 0 0 0 0 0 0 0 0
0 0 0 0 0 1 1 1 1 0 0 0 1 1 1 1 1 0 0 0 0 0 0 0 0 0 0 0 0 0 0 0 0 0 0 0 0 0 0 0 0 0 0
0 0 0 0 0 0 1 1 1 1 1 1 1 1 1 2 0 0 0 0 0 0 0 0 0 0 0 0 0 0 0 0 0 0 0 0 0 0 0 0 0 0 0
0 0 0 0 0 0 0 0 0 0 1 1 1 0 0 0 0 0 0 0 0 0 0 0 0 0 0 0 0 0 0 0 0 0 0 0 0 0 0 0 0 0 0
0 0 0 0 0 0 0 0 0 0 0 1 0 0 0 0 0 0 0 0 0 0 0 0 0 0 0 0 0 0 0 0 0 0 0 0 0 0 0 0 0 0 0
0 0 0 0 0 0 0 0 0 0 0 0 0 0 0 0 0 0 0 0 0 0 0 0 0 0 0 0 0 0 0 0 0 0 0 0 0 0 0 0 0 0 0
0 0 0 0 0 0 0 0 0 0 0 0 0 0 0 0 0 0 0 0 0 0 0 0 0 0 0 0 0 0 0 0 0 0 0 0 0 0 0 0 0 0 0
0 0 0 0 0 0 0 0 0 0 0 0 0 0 0 0 0 0 0 0 0 0 0 0 0 0 0 0 0 0 0 0 0 0 0 0 0 0 0 0 0 0 0
0 0 0 0 0 0 0 0 0 0 0 0 0 0 0 0 0 0 0 0 0 0 0 0 0 0 0 0 0 0 0 0 0 0 0 0 0 0 0 0 0 0 0
0 0 0 0 0 0 0 0 0 0 0 0 0 0 0 0 0 0 0 0 0 0 0 0 0 0 0 0 0 0 0 0 0 0 0 0 0 0 0 0 0 0 0
0 0 0 0 0 0 0 0 0 0 0 0 0 0 0 0 0 0 0 0 0 0 0 0 0 0 0 0 0 0 0 0 0 0 0 0 0 0 0 0 0 0 0
0 0 0 0 0 0 0 0 0 0 0 0 0 0 0 0 0 0 0 0 0 0 0 0 0 0 0 0 0 0 0 0 0 0 0 0 0 0 0 0 0 0 0
0 0 0 0 0 0 0 0 0 0 0 0 0 0 0 0 0 0 0 0 0 0 0 0 0 0 0 0 0 0 0 0 0 0 0 0 0 0 0 0 0 0 0
0 0 0 0 0 0 0 0 0 0 0 0 0 0 0 0 0 0 0 0 0 1 0 0 0 0 0 0 0 0 0 0 0 0 0 0 0 0 0 0 0 0 0
0 0 0 0 0 0 0 0 0 0 0 0 0 0 0 0 0 0 0 0 0 0 0 0 0 0 0 0 0 0 0 0 0 0 0 0 0 0 0 0 0 0 0
0 0 0 0 0 0 0 0 0 0 0 0 0 0 0 0 0 0 0 0 0 0 0 0 0 0 0 0 0 0 0 0 0 0 0 0 0 0 0 0 0 0 0
0 0 0 0 0 0 0 0 0 0 0 0 0 0 0 0 0 0 0 0 0 0 0 0 0 0 0 0 0 0 0 0 0 0 0 0 0 0 0 0 0 0 0
0 0 0 0 0 0 0 0 0 0 0 0 0 0 0 0 0 0 0 0 0 0 0 0 0 0 0 0 0 0 0 0 0 0 0 0 0 0 0 0 0 0 0
0 0 0 0 0 0 0 0 0 0 0 0 0 0 0 0 0 0 0 0 0 0 0 0 0 0 0 0 0 0 0 0 0 0 0 0 0 0 0 0 0 0 0
0 0 1 2 2 2 2 1 0 0 0 0 0 0 0 0 0 0 0 0 0 0 0 0 0 0 0 0 0 0 0 0 0 0 0 0 0 0 0 0 0 0 0
1 2 2 1 2 1 1 0 0 0 0 0 0 0 0 0 0 0 0 0 0 0 0 0 0 0 0 0 0 0 0 0 0 0 0 0 0 0 0 0 0 0 0
0 0 0 0 0 0 0 0 0 0 0 0 0 0 0 0 0 0 0 0 0 1 1 1 0 0 0 0 0 0 0 0 0 0 0 0 0 0 0 0 0 0 0
CIN
0 0 0 0 0 0 0 0 0 0 0 0 0 0 0 0 0 -21 -15 -24 -26 -34 -17 -3 -3 0 -18 0 0 0 0 0 0 0 0 0 0 0 0 0 0 0 0
0 0 0 0 0 0 0 0 0 0 0 0 0 0 0 0 0 -44 -36 -3 0 0 0 0 0 0 0 0 0 0 0 0 0 0 0 0 0 0 0 0 0 0 0
0 0 0 0 0 0 0 0 0 0 0 0 0 0 0 0 0 0 0 0 0 0 0 0 0 0 0 0 0 0 0 0 0 0 0 0 0 0 0 0 0 0 0
0 0 0 0 0 0 0 0 0 0 0 0 0 0 0 0 0 0 0 0 0 0 0 0 0 0 0 0 0 0 0 0 0 0 0 0 0 0 0 0 0 0 0
0 0 0 0 0 0 0 0 0 0 0 0 0 0 0 0 0 0 0 0 0 0 0 0 0 0 0 0 0 0 0 0 0 0 0 0 0 0 0 0 0 0 0
0 0 0 0 0 0 0 0 0 0 0 0 0 0 0 0 0 0 0 0 0 0 0 0 0 0 0 0 0 0 0 0 0 0 0 0 0 0 0 0 0 0 0
0 0 0 0 0 0 0 0 0 0 0 0 0 0 0 0 0 0 0 0 0 0 0 0 0 0 0 0 0 0 0 0 0 0 0 0 0 0 0 0 0 0 0
0 0 0 0 0 0 0 0 0 0 0 0 0 0 0 0 0 0 0 0 0 0 0 0 0 0 0 0 0 0 0 0 0 0 0 0 0 0 0 0 0 0 0
0 0 0 0 0 0 0 0 0 0 0 0 0 0 0 0 0 0 0 0 0 0 0 0 0 0 0 0 0 0 0 0 0 0 0 0 0 0 0 0 0 0 0
0 0 0 0 0 0 0 0 0 0 0 0 0 0 0 0 0 0 0 0 0 0 0 0 0 0 0 0 0 0 0 0 0 0 0 0 0 0 0 0 0 0 0
0 0 0 0 0 0 0 0 0 0 0 0 0 0 0 0 0 0 0 0 0 0 0 0 0 0 0 0 0 0 0 0 0 0 0 0 0 0 0 0 0 0 0
0 0 0 0 0 0 0 0 0 0 0 0 0 0 0 0 0 0 0 0 0 0 0 0 0 0 0 0 0 0 0 0 0 0 0 0 0 0 0 0 0 0 0
0 0 0 0 0 0 0 0 0 0 0 0 0 0 0 0 0 0 0 0 0 0 0 0 0 0 0 0 0 0 0 0 0 0 0 0 0 0 0 0 0 0 0
0 0 0 0 0 0 0 0 0 0 0 0 0 0 0 0 0 0 0 0 0 0 0 0 0 0 0 0 0 0 0 0 0 0 0 0 0 0 0 0 0 0 0
0 0 0 0 0 0 0 0 0 0 0 0 0 0 0 0 0 0 0 0 0 0 0 0 0 0 0 0 0 0 0 0 0 0 0 0 0 0 0 0 0 0 0
0 0 0 0 0 0 0 0 0 0 0 0 0 0 0 0 0 0 0 0 0 0 0 0 0 0 0 0 0 0 0 0 0 0 0 0 0 0 0 0 0 0 0
0 0 0 0 0 0 0 0 0 0 0 0 0 0 0 0 0 0 0 0 0 0 0 0 0 0 0 0 0 0 0 0 0 0 0 0 0 0 0 0 0 0 0
0 0 0 0 0 0 0 0 0 0 0 0 0 0 0 0 0 0 0 0 0 0 0 0 0 0 0 0 0 0 0 0 0 0 0 0 0 0 0 0 0 0 0
0 0 0 0 0 0 0 0 0 0 0 0 0 0 0 0 0 0 0 0 0 0 0 0 0 0 0 0 0 0 0 0 0 0 0 0 0 0 0 0 0 0 0
0 0 0 0 0 0 0 0 0 0 0 0 0 0 0 0 0 0 0 0 0 0 0 0 0 0 0 0 0 0 0 0 0 0 0 0 0 0 0 0 0 0 0
0 0 0 0 0 0 0 0 0 0 0 0 0 0 0 0 0 0 0 0 0 0 0 0 0 0 0 0 0 0 0 0 0 0 0 0 0 0 0 0 0 0 0
0 0 0 0 0 0 0 0 0 0 0 0 0 0 0 0 0 0 0 0 0 0 0 0 0 0 0 0 0 0 0 0 0 0 0 0 0 0 0 0 0 0 0
0 0 0 0 0 0 0 0 0 0 0 0 0 0 0 0 0 0 0 0 0 0 0 0 0 0 0 0 0 0 0 0 0 0 0 0 0 0 0 0 0 0 0
0 0 0 0 0 0 0 0 0 0 0 0 0 0 0 0 0 0 0 0 0 0 0 0 0 0 0 0 0 0 0 0 0 0 0 0 0 0 0 0 0 0 0
0 0 0 0 0 0 0 0 0 0 0 0 0 0 0 0 0 0 0 0 0 0 0 0 0 0 0 0 0 0 0 0 0 0 0 0 0 0 0 0 0 0 0
0 0 0 0 0 0 0 0 0 0 0 0 0 0 0 0 0 0 0 0 0 0 0 0 0 0 0 0 0 0 0 0 0 0 0 0 0 0 0 0 0 0 0
Wind_Speed
13 10 11 11 12 13 14 14 15 15 15 15 16 14 16 17 12 6 8 10 10 9 9 9 14 14 15 12 11 11 10 9 11 14 15 12 14 14 14 15 17 17 18
16 14 12 13 14 15 13 14 14 14 15 15 15 16 16 17 13 12 8 6 3 8 10 9 11 12 11 11 12 12 11 12 14 12 12 11 11 11 12 13 14 16 17
18 18 17 13 13 14 14 15 12 13 11 10 10 11 13 12 13 14 11 11 9 7 8 9 10 9 12 14 14 10 10 11 11 9 10 10 10 9 11 12 13 15 16
20 19 19 17 16 15 16 18 20 19 16 11 8 8 6 4 4 5 5 5 6 7 9 11 10 10 10 10 11 10 10 11 12 11 10 9 8 8 9 9 11 14 15
21 21 20 18 17 16 17 19 20 19 19 21 23 18 5 9 9 9 10 7 9 13 13 12 11 11 11 11 10 10 10 11 10 9 9 8 7 6 6 8 11 13 13
23 21 20 21 22 18 15 17 19 20 20 19 18 18 12 10 17 16 15 13 12 11 11 11 12 13 13 14 13 12 11 10 10 10 11 12 14 12 11 16 12 12 13
22 23 23 22 22 22 22 20 7 10 14 15 11 6 9 10 13 13 14 14 14 13 12 12 12 12 13 13 14 13 14 13 13 13 16 19 18 17 15 15 12 12 13
21 21 22 24 24 22 22 23 22 21 21 22 16 15 13 11 12 15 16 15 14 14 13 13 13 12 12 13 13 13 14 13 13 14 17 19 17 18 17 15 14 12 13
19 20 20 21 22 23 23 23 22 23 22 22 21 19 19 17 18 20 17 16 14 14 14 13 13 12 13 13 13 13 13 14 14 13 14 14 15 18 16 14 13 12 12
16 17 18 19 20 21 21 21 21 21 22 22 21 20 20 19 18 17 17 15 14 15 13 13 12 12 12 11 11 12 12 13 13 14 13 11 11 13 13 11 11 11 10
12 13 14 15 17 17 18 18 19 18 18 16 16 16 15 15 14 14 13 13 12 11 11 11 11 11 10 10 9 9 9 10 11 11 11 10 8 7 7 5 7 7 7
7 9 10 11 12 12 12 13 13 13 13 13 13 13 13 13 12 12 11 10 10 9 9 10 10 10 9 9 8 8 8 7 7 7 7 7 7 5 3 4 4 4 7
4 5 6 7 8 9 9 9 10 10 9 9 10 10 12 11 11 12 12 12 10 10 10 8 9 9 9 9 8 6 5 4 3 3 2 2 4 3 3 5 8 9 10
3 4 5 5 7 7 8 7 7 7 8 7 8 7 10 12 12 11 11 11 11 11 10 9 10 11 11 9 7 6 5 3 3 4 6 9 7 5 5 8 9 10 11
6 7 6 7 8 9 10 9 9 9 10 11 12 13 12 11 12 10 9 9 9 10 10 11 11 11 9 9 8 8 7 6 6 11 10 10 10 9 10 10 13 12 15
10 11 11 11 11 12 13 16 16 17 17 15 17 17 19 19 22 17 13 11 11 9 13 12 11 11 11 10 10 10 9 8 7 7 10 10 12 13 14 15 17 18 19
11 14 15 17 17 16 16 17 20 21 20 19 19 18 18 20 20 19 18 15 14 13 17 16 16 15 13 13 13 13 12 12 11 11 12 13 14 15 15 16 17 19 19
13 14 13 14 17 20 22 22 22 24 25 25 23 22 23 23 22 22 21 19 20 19 21 20 19 19 19 18 18 18 17 16 15 15 15 16 16 17 18 18 18 19 20
16 17 17 17 17 17 20 23 26 27 28 29 30 28 26 26 26 25 23 22 23 24 23 24 23 23 22 21 21 22 22 21 20 20 20 19 19 19 20 20 20 21 22
19 19 19 19 19 20 20 21 24 27 29 30 32 32 30 27 27 26 25 26 27 28 28 28 28 27 26 25 24 24 25 25 24 24 24 24 23 22 23 23 23 24 23
20 19 19 20 21 22 24 27 30 32 34 35 34 32 31 30 29 27 26 25 26 29 31 31 31 30 29 29 29 29 29 28 28 27 27 26 25 25 25 25 25 25 26
20 21 21 22 26 28 30 31 33 33 33 34 35 34 33 31 31 31 30 29 28 28 28 29 30 30 31 31 30 31 31 31 30 29 28 27 26 26 26 26 26 26 26
23 24 26 27 29 30 32 31 30 31 31 32 32 33 32 32 33 32 31 31 31 31 30 29 29 29 28 28 28 28 31 31 30 29 29 29 28 27 26 28 28 28 27
25 27 28 30 30 29 28 29 29 30 31 31 32 31 31 31 31 31 31 31 30 30 29 29 29 30 30 29 29 28 28 28 28 28 27 29 30 30 29 30 30 29 29
25 26 26 26 27 28 28 29 29 30 30 30 30 30 29 29 28 29 29 28 28 28 28 28 29 30 30 31 30 28 27 27 26 26 27 29 30 29 29 29 29 30 30
23 24 25 26 27 27 28 29 29 29 28 28 28 28 28 28 28 28 29 29 29 29 29 29 30 30 30 30 30 30 30 30 30 29 29 30 30 31 30 30 30 31 30
Wind_Direction
119 136 141 170 202 228 252 261 248 258 261 261 257 263 262 256 265 282 270 270 268 283 299 296 305 323 326 328 335 341 352 0 348 342 339 346 348 4 23 33 32 11 359
103 123 144 150 149 158 201 243 274 285 275 267 262 259 270 261 265 269 286 297 330 305 309 329 329 334 355 356 347 344 347 342 340 344 350 8 18 26 27 30 17 11 18
101 103 113 138 156 164 175 163 227 245 264 271 268 267 269 271 269 269 280 296 305 303 330 336 348 355 342 342 342 9 23 25 18 17 4 4 8 32 23 7 6 14 16
95 101 104 113 125 140 153 157 151 156 176 204 221 233 256 294 339 2 4 0 354 352 343 335 353 41 51 63 56 42 20 11 14 20 13 12 14 14 25 35 14 21 31
99 98 100 112 122 131 139 147 156 168 169 163 151 164 291 29 16 28 55 16 51 70 74 68 55 37 18 20 27 29 38 29 32 34 26 23 32 48 67 44 58 53 25
93 100 105 106 105 126 144 147 152 159 168 176 186 186 220 246 80 78 75 71 65 56 51 36 24 17 14 12 21 38 44 65 76 79 91 112 125 109 93 111 80 67 37
93 92 100 107 109 111 117 133 195 191 181 187 216 293 357 360 35 50 56 61 62 61 60 50 36 29 26 31 33 38 52 75 100 112 130 144 135 132 114 111 92 81 51
101 100 98 94 101 115 117 119 126 134 142 143 113 53 35 9 28 63 69 67 64 60 55 57 57 55 64 60 60 63 67 66 94 123 140 142 133 132 126 114 107 61 51
95 100 105 101 98 103 106 113 121 123 131 135 147 163 163 180 174 134 87 85 72 70 78 78 81 87 91 85 81 81 77 72 49 62 81 99 110 125 120 105 103 82 57
92 91 99 104 100 104 104 107 111 113 103 101 102 101 105 99 99 102 96 83 81 93 78 78 76 77 83 84 83 89 90 92 87 84 78 65 81 108 117 114 109 101 44
87 78 70 83 94 97 84 90 92 79 81 61 69 74 76 73 63 71 77 86 85 83 76 67 65 64 68 69 69 74 67 88 86 89 89 84 78 86 92 82 105 99 67
69 77 73 71 68 61 60 57 54 45 40 39 33 8 10 23 34 48 60 64 61 56 51 53 49 48 49 51 44 43 60 68 76 89 101 111 118 112 57 27 24 17 1
42 47 49 38 37 50 49 39 22 24 25 47 22 7 354 4 10 8 4 4 17 15 21 32 22 19 19 19 16 31 38 59 66 74 92 24 337 333 343 334 330 331 335
6 6 356 359 357 1 4 11 13 10 7 13 359 5 348 337 336 343 348 347 349 352 359 3 359 354 351 355 357 359 345 337 322 316 312 314 315 308 301 310 308 313 316
317 320 324 325 324 325 326 331 333 332 333 330 327 324 327 328 327 330 331 331 332 334 337 334 331 333 336 335 331 330 328 318 306 308 303 296 292 291 292 297 302 302 306
299 302 306 310 311 312 313 312 310 310 311 312 312 313 311 309 309 315 315 315 317 319 318 314 311 310 310 310 308 309 305 294 279 286 290 286 285 281 283 290 296 295 297
289 295 297 298 300 303 305 308 308 307 306 305 305 304 304 306 306 306 307 305 303 301 303 302 301 301 298 297 299 300 298 297 298 288 289 289 287 282 280 280 281 285 287
288 291 292 294 297 297 297 300 303 304 305 305 305 303 301 299 299 300 299 299 297 292 295 297 295 294 295 293 293 294 296 296 293 290 288 288 287 286 281 276 279 280 282
291 292 293 296 299 300 300 299 299 300 301 303 305 306 304 300 298 296 294 291 291 292 292 294 296 296 294 292 292 292 292 291 291 292 291 290 289 288 288 286 284 284 289
293 294 295 296 300 301 303 303 303 302 302 303 303 304 305 303 297 294 292 291 290 291 292 291 293 293 294 294 294 292 292 291 290 289 290 291 291 290 290 290 289 289 288
293 296 297 300 301 303 304 303 303 302 301 301 301 304 304 301 299 296 294 291 291 292 292 291 292 291 291 291 292 291 291 291 290 290 290 290 289 289 289 291 291 290 293
297 297 297 299 301 302 303 304 304 303 303 302 303 304 303 301 300 298 296 295 295 295 295 295 294 293 291 291 291 290 290 290 290 290 291 292 292 292 292 292 292 292 292
299 299 300 301 303 304 305 307 307 306 306 306 307 308 307 304 300 300 300 298 297 298 299 298 297 297 296 294 293 293 292 291 292 292 292 292 292 293 293 292 292 292 292
302 301 302 303 305 307 308 310 312 311 311 311 311 311 311 309 307 305 303 302 302 303 302 301 300 298 298 298 297 296 295 295 295 294 293 293 294 294 293 293 293 293 293
307 308 309 310 311 312 313 314 315 316 316 316 317 317 317 316 314 313 311 310 309 309 308 307 305 303 302 301 300 299 298 297 297 297 297 296 295 294 293 293 293 293 292
315 316 316 317 316 318 317 317 319 321 323 324 326 326 325 325 323 320 317 315 314 313 312 312 311 309 308 308 307 305 303 301 300 299 299 297 295 295 294 294 294 294 294